Time,TemperatureF,DewpointF,PressureIn,WindDirection,WindDirectionDegrees,WindSpeedMPH,WindSpeedGustMPH,Humidity,HourlyPrecipIn,Conditions,Clouds,dailyrainin,SoftwareType,DateUTC
2013-02-15 00:01:00,47.9,37.5,30.20,SSE,158,4.5,4.5,67,0.00,,,0.00,WUHU216HW,2013-02-15 08:01:00,
2013-02-15 00:06:00,47.9,37.5,30.20,SE,135,4.0,4.9,67,0.00,,,0.00,WUHU216HW,2013-02-15 08:06:00,
2013-02-15 00:11:00,47.9,37.8,30.20,ESE,113,4.0,4.9,68,0.00,,,0.00,WUHU216HW,2013-02-15 08:11:00,
2013-02-15 00:16:00,48.1,37.6,30.20,SE,135,3.4,4.9,67,0.00,,,0.00,WUHU216HW,2013-02-15 08:16:00,
2013-02-15 00:21:00,48.1,37.6,30.20,SE,135,3.8,5.4,67,0.00,,,0.00,WUHU216HW,2013-02-15 08:21:00,
2013-02-15 00:26:00,48.1,37.6,30.20,SE,135,3.4,5.4,67,0.00,,,0.00,WUHU216HW,2013-02-15 08:26:00,
2013-02-15 00:31:00,48.1,37.6,30.20,SE,135,4.7,5.4,67,0.00,,,0.00,WUHU216HW,2013-02-15 08:31:00,
2013-02-15 00:36:00,48.1,37.6,30.20,ESE,113,3.4,4.7,67,0.00,,,0.00,WUHU216HW,2013-02-15 08:36:00,
2013-02-15 00:41:00,48.1,37.6,30.20,SE,135,3.4,4.3,67,0.00,,,0.00,WUHU216HW,2013-02-15 08:41:00,
2013-02-15 00:46:00,48.1,37.6,30.20,ESE,113,2.9,4.0,67,0.00,,,0.00,WUHU216HW,2013-02-15 08:46:00,
2013-02-15 00:51:00,48.1,37.6,30.20,SE,135,3.4,4.5,67,0.00,,,0.00,WUHU216HW,2013-02-15 08:51:00,
2013-02-15 00:56:00,47.9,37.5,30.20,SSE,158,3.6,4.5,67,0.00,,,0.00,WUHU216HW,2013-02-15 08:56:00,
2013-02-15 01:01:00,47.9,37.5,30.20,SE,135,2.9,6.3,67,0.00,,,0.00,WUHU216HW,2013-02-15 09:01:00,
2013-02-15 01:06:00,47.9,37.5,30.20,SE,135,2.2,6.3,67,0.00,,,0.00,WUHU216HW,2013-02-15 09:06:00,
2013-02-15 01:11:00,47.9,37.5,30.20,SE,135,2.7,3.6,67,0.00,,,0.00,WUHU216HW,2013-02-15 09:11:00,
2013-02-15 01:16:00,47.7,37.3,30.21,SE,135,2.7,5.4,67,0.00,,,0.00,WUHU216HW,2013-02-15 09:16:00,
2013-02-15 01:21:00,47.5,37.1,30.21,ESE,113,3.1,5.4,67,0.00,,,0.00,WUHU216HW,2013-02-15 09:21:00,
2013-02-15 01:26:00,47.3,36.9,30.21,SE,135,3.4,3.6,67,0.00,,,0.00,WUHU216HW,2013-02-15 09:26:00,
2013-02-15 01:31:00,47.2,36.7,30.21,SE,135,2.7,3.8,67,0.00,,,0.00,WUHU216HW,2013-02-15 09:31:00,
2013-02-15 01:36:00,47.2,36.7,30.21,ESE,113,3.8,3.8,67,0.00,,,0.00,WUHU216HW,2013-02-15 09:36:00,
2013-02-15 01:41:00,47.2,36.7,30.21,SSE,158,4.5,4.5,67,0.00,,,0.00,WUHU216HW,2013-02-15 09:41:00,
2013-02-15 01:46:00,46.8,36.8,30.21,ESE,113,4.3,4.9,68,0.00,,,0.00,WUHU216HW,2013-02-15 09:46:00,
2013-02-15 01:51:00,46.8,36.8,30.21,ESE,113,3.4,4.9,68,0.00,,,0.00,WUHU216HW,2013-02-15 09:51:00,
2013-02-15 01:56:00,46.4,36.5,30.21,ESE,113,4.0,4.0,68,0.00,,,0.00,WUHU216HW,2013-02-15 09:56:00,
2013-02-15 02:01:00,46.4,36.5,30.21,SE,135,2.7,4.0,68,0.00,,,0.00,WUHU216HW,2013-02-15 10:01:00,
2013-02-15 02:06:00,46.4,36.5,30.22,ESE,113,5.1,5.1,68,0.00,,,0.00,WUHU216HW,2013-02-15 10:06:00,
2013-02-15 02:11:00,46.3,36.3,30.22,ESE,113,4.3,5.6,68,0.00,,,0.00,WUHU216HW,2013-02-15 10:11:00,
2013-02-15 02:16:00,46.1,36.6,30.21,ENE,68,2.7,5.6,69,0.00,,,0.00,WUHU216HW,2013-02-15 10:16:00,
2013-02-15 02:21:00,46.1,36.9,30.21,NE,45,2.0,4.5,70,0.00,,,0.00,WUHU216HW,2013-02-15 10:21:00,
2013-02-15 02:26:00,46.3,37.1,30.21,ENE,68,2.2,4.5,70,0.00,,,0.00,WUHU216HW,2013-02-15 10:26:00,
2013-02-15 02:31:00,46.1,36.6,30.21,ENE,68,2.5,3.8,69,0.00,,,0.00,WUHU216HW,2013-02-15 10:31:00,
2013-02-15 02:36:00,45.7,36.2,30.21,ESE,113,3.1,3.8,69,0.00,,,0.00,WUHU216HW,2013-02-15 10:36:00,
2013-02-15 02:41:00,45.5,36.0,30.21,ESE,113,3.1,3.4,69,0.00,,,0.00,WUHU216HW,2013-02-15 10:41:00,
2013-02-15 02:46:00,45.0,35.5,30.21,ESE,113,2.0,3.4,69,0.00,,,0.00,WUHU216HW,2013-02-15 10:46:00,
2013-02-15 02:51:00,44.6,35.1,30.21,East,90,2.9,4.0,69,0.00,,,0.00,WUHU216HW,2013-02-15 10:51:00,
2013-02-15 02:56:00,44.3,34.7,30.21,ESE,113,3.4,4.0,69,0.00,,,0.00,WUHU216HW,2013-02-15 10:56:00,
2013-02-15 03:01:00,44.3,35.1,30.21,ESE,113,2.9,3.6,70,0.00,,,0.00,WUHU216HW,2013-02-15 11:01:00,
2013-02-15 03:06:00,44.1,35.0,30.21,ESE,113,1.8,3.6,70,0.00,,,0.00,WUHU216HW,2013-02-15 11:06:00,
2013-02-15 03:11:00,43.9,35.2,30.21,East,90,1.8,2.5,71,0.00,,,0.00,WUHU216HW,2013-02-15 11:11:00,
2013-02-15 03:16:00,43.9,35.2,30.21,East,90,2.2,2.2,71,0.00,,,0.00,WUHU216HW,2013-02-15 11:16:00,
2013-02-15 03:21:00,43.7,35.0,30.20,ESE,113,2.7,2.7,71,0.00,,,0.00,WUHU216HW,2013-02-15 11:21:00,
2013-02-15 03:26:00,43.6,34.8,30.20,ESE,113,2.9,2.9,71,0.00,,,0.00,WUHU216HW,2013-02-15 11:26:00,
2013-02-15 03:31:00,43.4,34.3,30.20,SE,135,2.7,3.6,70,0.00,,,0.00,WUHU216HW,2013-02-15 11:31:00,
2013-02-15 03:36:00,43.2,34.5,30.20,ESE,113,1.8,3.6,71,0.00,,,0.00,WUHU216HW,2013-02-15 11:36:00,
2013-02-15 03:41:00,43.2,34.5,30.20,ESE,113,1.8,3.6,71,0.00,,,0.00,WUHU216HW,2013-02-15 11:41:00,
2013-02-15 03:46:00,43.0,34.3,30.20,ESE,113,2.0,3.6,71,0.00,,,0.00,WUHU216HW,2013-02-15 11:46:00,
2013-02-15 03:51:00,43.0,34.3,30.20,ESE,113,3.1,3.6,71,0.00,,,0.00,WUHU216HW,2013-02-15 11:51:00,
2013-02-15 03:56:00,42.8,34.2,30.20,ESE,113,1.8,3.6,71,0.00,,,0.00,WUHU216HW,2013-02-15 11:56:00,
2013-02-15 04:01:00,42.8,34.2,30.20,SE,135,0.2,2.5,71,0.00,,,0.00,WUHU216HW,2013-02-15 12:01:00,
2013-02-15 04:06:00,42.7,34.0,30.21,East,90,1.1,1.8,71,0.00,,,0.00,WUHU216HW,2013-02-15 12:06:00,
2013-02-15 04:11:00,42.7,34.0,30.21,East,90,2.0,2.0,71,0.00,,,0.00,WUHU216HW,2013-02-15 12:11:00,
2013-02-15 04:16:00,42.5,33.9,30.21,ESE,113,3.4,3.6,71,0.00,,,0.00,WUHU216HW,2013-02-15 12:16:00,
2013-02-15 04:21:00,42.5,33.9,30.21,SE,135,2.5,4.0,71,0.00,,,0.00,WUHU216HW,2013-02-15 12:21:00,
2013-02-15 04:26:00,42.5,34.1,30.21,ESE,113,4.0,4.0,72,0.00,,,0.00,WUHU216HW,2013-02-15 12:26:00,
2013-02-15 04:31:00,42.5,34.1,30.21,ESE,113,2.9,4.7,72,0.00,,,0.00,WUHU216HW,2013-02-15 12:31:00,
2013-02-15 04:36:00,42.5,34.5,30.21,ESE,113,3.8,4.9,73,0.00,,,0.00,WUHU216HW,2013-02-15 12:36:00,
2013-02-15 04:41:00,42.5,34.5,30.21,SE,135,1.3,4.9,73,0.00,,,0.00,WUHU216HW,2013-02-15 12:41:00,
2013-02-15 04:46:00,42.3,34.3,30.21,ESE,113,2.7,3.4,73,0.00,,,0.00,WUHU216HW,2013-02-15 12:46:00,
2013-02-15 04:51:00,42.1,34.1,30.21,SE,135,2.7,3.4,73,0.00,,,0.00,WUHU216HW,2013-02-15 12:51:00,
2013-02-15 04:56:00,42.1,34.4,30.21,ESE,113,1.8,3.4,74,0.00,,,0.00,WUHU216HW,2013-02-15 12:56:00,
2013-02-15 05:01:00,42.1,34.1,30.21,SE,135,2.5,2.5,73,0.00,,,0.00,WUHU216HW,2013-02-15 13:01:00,
2013-02-15 05:06:00,41.9,33.9,30.21,ESE,113,3.4,3.4,73,0.00,,,0.00,WUHU216HW,2013-02-15 13:06:00,
2013-02-15 05:11:00,41.8,34.0,30.21,SE,135,2.0,3.4,74,0.00,,,0.00,WUHU216HW,2013-02-15 13:11:00,
2013-02-15 05:16:00,41.8,34.0,30.22,ESE,113,0.4,2.5,74,0.00,,,0.00,WUHU216HW,2013-02-15 13:16:00,
2013-02-15 05:21:00,41.8,34.0,30.22,ENE,68,0.7,1.8,74,0.00,,,0.00,WUHU216HW,2013-02-15 13:21:00,
2013-02-15 05:26:00,41.8,34.4,30.21,East,90,1.1,1.8,75,0.00,,,0.00,WUHU216HW,2013-02-15 13:26:00,
2013-02-15 05:31:00,41.8,34.0,30.21,ESE,113,2.2,2.7,74,0.00,,,0.00,WUHU216HW,2013-02-15 13:31:00,
2013-02-15 05:36:00,41.8,34.0,30.21,ESE,113,1.3,2.7,74,0.00,,,0.00,WUHU216HW,2013-02-15 13:36:00,
2013-02-15 05:41:00,41.6,33.8,30.21,ESE,113,1.3,2.2,74,0.00,,,0.00,WUHU216HW,2013-02-15 13:41:00,
2013-02-15 05:46:00,41.4,33.7,30.22,ESE,113,2.2,2.2,74,0.00,,,0.00,WUHU216HW,2013-02-15 13:46:00,
2013-02-15 05:51:00,41.2,33.5,30.21,ESE,113,1.6,2.2,74,0.00,,,0.00,WUHU216HW,2013-02-15 13:51:00,
2013-02-15 05:56:00,41.0,33.3,30.21,SE,135,1.8,1.8,74,0.00,,,0.00,WUHU216HW,2013-02-15 13:56:00,
2013-02-15 06:01:00,41.0,33.3,30.21,SE,135,1.1,3.1,74,0.00,,,0.00,WUHU216HW,2013-02-15 14:01:00,
2013-02-15 06:06:00,40.9,33.1,30.21,East,90,1.1,3.1,74,0.00,,,0.00,WUHU216HW,2013-02-15 14:06:00,
2013-02-15 06:11:00,40.9,34.1,30.21,East,90,1.1,1.8,77,0.00,,,0.00,WUHU216HW,2013-02-15 14:11:00,
2013-02-15 06:16:00,40.9,33.9,30.22,East,90,1.3,1.8,76,0.00,,,0.00,WUHU216HW,2013-02-15 14:16:00,
2013-02-15 06:21:00,40.9,33.9,30.22,ENE,68,0.7,1.8,76,0.00,,,0.00,WUHU216HW,2013-02-15 14:21:00,
2013-02-15 06:26:00,40.7,33.7,30.22,ENE,68,0.4,1.8,76,0.00,,,0.00,WUHU216HW,2013-02-15 14:26:00,
2013-02-15 06:31:00,40.5,33.9,30.22,NE,45,2.0,3.4,77,0.00,,,0.00,WUHU216HW,2013-02-15 14:31:00,
2013-02-15 06:36:00,40.5,33.9,30.22,ENE,68,1.1,3.4,77,0.00,,,0.00,WUHU216HW,2013-02-15 14:36:00,
2013-02-15 06:41:00,40.5,33.9,30.22,ESE,113,0.9,1.8,77,0.00,,,0.00,WUHU216HW,2013-02-15 14:41:00,
2013-02-15 06:46:00,40.3,33.7,30.22,ESE,113,0.9,1.1,77,0.00,,,0.00,WUHU216HW,2013-02-15 14:46:00,
2013-02-15 06:51:00,40.1,33.5,30.22,East,90,1.8,1.8,77,0.00,,,0.00,WUHU216HW,2013-02-15 14:51:00,
2013-02-15 06:56:00,40.0,33.3,30.22,ESE,113,1.8,2.2,77,0.00,,,0.00,WUHU216HW,2013-02-15 14:56:00,
2013-02-15 07:01:00,39.8,33.1,30.23,ENE,68,1.1,2.2,77,0.00,,,0.00,WUHU216HW,2013-02-15 15:01:00,
2013-02-15 07:06:00,39.6,32.9,30.23,East,90,0.4,1.8,77,0.00,,,0.00,WUHU216HW,2013-02-15 15:06:00,
2013-02-15 07:11:00,39.4,32.8,30.23,ESE,113,0.7,1.6,77,0.00,,,0.00,WUHU216HW,2013-02-15 15:11:00,
2013-02-15 07:16:00,39.4,32.8,30.23,East,90,1.1,1.3,77,0.00,,,0.00,WUHU216HW,2013-02-15 15:16:00,
2013-02-15 07:21:00,39.2,32.7,30.24,SE,135,0.4,1.1,77,0.00,,,0.00,WUHU216HW,2013-02-15 15:21:00,
2013-02-15 07:26:00,39.2,32.7,30.24,SE,135,0.4,1.6,77,0.00,,,0.00,WUHU216HW,2013-02-15 15:26:00,
2013-02-15 07:31:00,39.4,32.8,30.24,ESE,113,1.1,1.6,77,0.00,,,0.00,WUHU216HW,2013-02-15 15:31:00,
2013-02-15 07:36:00,39.6,32.9,30.24,South,180,1.1,1.3,77,0.00,,,0.00,WUHU216HW,2013-02-15 15:36:00,
2013-02-15 07:41:00,39.6,32.9,30.24,SSE,158,0.7,1.3,77,0.00,,,0.00,WUHU216HW,2013-02-15 15:41:00,
2013-02-15 07:46:00,40.0,33.7,30.25,SE,135,0.0,1.1,78,0.00,,,0.00,WUHU216HW,2013-02-15 15:46:00,
2013-02-15 07:51:00,40.1,33.9,30.25,ESE,113,0.2,1.1,78,0.00,,,0.00,WUHU216HW,2013-02-15 15:51:00,
2013-02-15 07:56:00,40.5,34.5,30.25,East,90,0.7,0.7,79,0.00,,,0.00,WUHU216HW,2013-02-15 15:56:00,
2013-02-15 08:01:00,40.9,35.1,30.25,ESE,113,0.0,0.7,80,0.00,,,0.00,WUHU216HW,2013-02-15 16:01:00,
2013-02-15 08:06:00,41.4,35.6,30.25,ESE,113,0.0,0.4,80,0.00,,,0.00,WUHU216HW,2013-02-15 16:06:00,
2013-02-15 08:11:00,41.9,36.2,30.25,ESE,113,0.0,0.0,80,0.00,,,0.00,WUHU216HW,2013-02-15 16:11:00,
2013-02-15 08:16:00,42.5,36.7,30.25,NNE,23,0.2,1.1,80,0.00,,,0.00,WUHU216HW,2013-02-15 16:16:00,
2013-02-15 08:21:00,43.2,37.4,30.25,NNE,23,0.4,1.1,80,0.00,,,0.00,WUHU216HW,2013-02-15 16:21:00,
2013-02-15 08:26:00,43.9,37.8,30.25,ENE,68,0.4,0.9,79,0.00,,,0.00,WUHU216HW,2013-02-15 16:26:00,
2013-02-15 08:31:00,44.5,38.0,30.25,ESE,113,0.7,0.7,78,0.00,,,0.00,WUHU216HW,2013-02-15 16:31:00,
2013-02-15 08:36:00,45.0,38.5,30.25,SSE,158,1.3,1.3,78,0.00,,,0.00,WUHU216HW,2013-02-15 16:36:00,
2013-02-15 08:41:00,45.7,39.0,30.25,SE,135,0.9,1.3,77,0.00,,,0.00,WUHU216HW,2013-02-15 16:41:00,
2013-02-15 08:46:00,46.1,39.3,30.25,SW,225,1.1,1.8,77,0.00,,,0.00,WUHU216HW,2013-02-15 16:46:00,
2013-02-15 08:51:00,46.4,39.7,30.25,SSW,203,0.0,1.8,77,0.00,,,0.00,WUHU216HW,2013-02-15 16:51:00,
2013-02-15 08:56:00,47.2,40.7,30.25,SSE,158,1.8,1.8,78,0.00,,,0.00,WUHU216HW,2013-02-15 16:56:00,
2013-02-15 09:01:00,47.7,40.8,30.25,ESE,113,0.2,1.8,77,0.00,,,0.00,WUHU216HW,2013-02-15 17:01:00,
2013-02-15 09:06:00,48.2,41.3,30.25,ENE,68,1.3,1.8,77,0.00,,,0.00,WUHU216HW,2013-02-15 17:06:00,
2013-02-15 09:11:00,48.8,41.5,30.25,NNE,23,0.0,1.3,76,0.00,,,0.00,WUHU216HW,2013-02-15 17:11:00,
2013-02-15 09:16:00,49.3,41.7,30.25,West,270,1.8,2.0,75,0.00,,,0.00,WUHU216HW,2013-02-15 17:16:00,
2013-02-15 09:21:00,49.9,42.2,30.25,West,270,0.4,2.0,75,0.00,,,0.00,WUHU216HW,2013-02-15 17:21:00,
2013-02-15 09:26:00,50.4,42.4,30.25,WSW,248,2.2,2.2,74,0.00,,,0.00,WUHU216HW,2013-02-15 17:26:00,
2013-02-15 09:31:00,50.8,42.4,30.25,SW,225,1.1,2.2,73,0.00,,,0.00,WUHU216HW,2013-02-15 17:31:00,
2013-02-15 09:36:00,51.3,42.7,30.25,NW,315,1.1,1.6,72,0.00,,,0.00,WUHU216HW,2013-02-15 17:36:00,
2013-02-15 09:41:00,51.7,43.0,30.25,NNW,338,0.9,1.6,72,0.00,,,0.00,WUHU216HW,2013-02-15 17:41:00,
2013-02-15 09:46:00,52.2,43.5,30.25,NNE,23,0.4,2.0,72,0.00,,,0.00,WUHU216HW,2013-02-15 17:46:00,
2013-02-15 09:51:00,52.7,43.3,30.25,North,0,1.3,2.5,70,0.00,,,0.00,WUHU216HW,2013-02-15 17:51:00,
2013-02-15 09:56:00,53.5,43.9,30.26,NNE,23,0.7,2.5,70,0.00,,,0.00,WUHU216HW,2013-02-15 17:56:00,
2013-02-15 10:01:00,54.2,44.3,30.26,NW,315,2.5,2.5,69,0.00,,,0.00,WUHU216HW,2013-02-15 18:01:00,
2013-02-15 10:06:00,54.7,44.7,30.26,WNW,293,2.2,2.7,69,0.00,,,0.00,WUHU216HW,2013-02-15 18:06:00,
2013-02-15 10:11:00,55.1,45.1,30.26,WSW,248,1.1,2.7,69,0.00,,,0.00,WUHU216HW,2013-02-15 18:11:00,
2013-02-15 10:16:00,55.4,44.6,30.26,NNE,23,3.4,3.4,67,0.00,,,0.00,WUHU216HW,2013-02-15 18:16:00,
2013-02-15 10:21:00,56.0,45.2,30.26,ENE,68,0.2,3.4,67,0.00,,,0.00,WUHU216HW,2013-02-15 18:21:00,
2013-02-15 10:26:00,56.3,45.1,30.26,WNW,293,1.8,1.8,66,0.00,,,0.00,WUHU216HW,2013-02-15 18:26:00,
2013-02-15 10:31:00,57.4,46.1,30.26,NNW,338,1.3,2.7,66,0.00,,,0.00,WUHU216HW,2013-02-15 18:31:00,
2013-02-15 10:36:00,58.1,45.2,30.25,North,0,6.3,6.3,62,0.00,,,0.00,WUHU216HW,2013-02-15 18:36:00,
2013-02-15 10:41:00,59.0,46.0,30.25,North,0,1.1,6.3,62,0.00,,,0.00,WUHU216HW,2013-02-15 18:41:00,
2013-02-15 10:46:00,59.6,46.5,30.25,NNW,338,3.6,5.6,62,0.00,,,0.00,WUHU216HW,2013-02-15 18:46:00,
2013-02-15 10:51:00,60.1,46.3,30.26,North,0,8.7,8.7,60,0.00,,,0.00,WUHU216HW,2013-02-15 18:51:00,
2013-02-15 10:56:00,60.5,46.6,30.26,North,0,2.7,8.7,60,0.00,,,0.00,WUHU216HW,2013-02-15 18:56:00,
2013-02-15 11:01:00,60.8,46.0,30.25,NE,45,5.6,8.7,58,0.00,,,0.00,WUHU216HW,2013-02-15 19:01:00,
2013-02-15 11:06:00,61.2,45.4,30.25,NNE,23,4.9,8.1,56,0.00,,,0.00,WUHU216HW,2013-02-15 19:06:00,
2013-02-15 11:11:00,61.4,45.0,30.25,NNE,23,6.7,8.1,55,0.00,,,0.00,WUHU216HW,2013-02-15 19:11:00,
2013-02-15 11:16:00,61.6,44.2,30.26,NE,45,7.6,8.3,53,0.00,,,0.00,WUHU216HW,2013-02-15 19:16:00,
2013-02-15 11:21:00,61.7,44.4,30.27,NE,45,4.7,8.5,53,0.00,,,0.00,WUHU216HW,2013-02-15 19:21:00,
2013-02-15 11:26:00,62.1,45.2,30.26,NE,45,9.4,9.4,54,0.00,,,0.00,WUHU216HW,2013-02-15 19:26:00,
2013-02-15 11:31:00,62.3,44.9,30.26,ENE,68,9.6,9.6,53,0.00,,,0.00,WUHU216HW,2013-02-15 19:31:00,
2013-02-15 11:36:00,62.3,45.4,30.26,NNE,23,8.5,10.5,54,0.00,,,0.00,WUHU216HW,2013-02-15 19:36:00,
2013-02-15 11:41:00,62.6,46.2,30.26,North,0,9.2,10.5,55,0.00,,,0.00,WUHU216HW,2013-02-15 19:41:00,
2013-02-15 11:46:00,62.6,44.7,30.26,NNE,23,8.5,9.2,52,0.00,,,0.00,WUHU216HW,2013-02-15 19:46:00,
2013-02-15 11:51:00,62.6,45.7,30.25,NNE,23,6.7,9.2,54,0.00,,,0.00,WUHU216HW,2013-02-15 19:51:00,
2013-02-15 11:56:00,62.8,45.8,30.25,NNE,23,9.2,9.2,54,0.00,,,0.00,WUHU216HW,2013-02-15 19:56:00,
2013-02-15 12:01:00,63.0,46.0,30.25,North,0,8.1,10.5,54,0.00,,,0.00,WUHU216HW,2013-02-15 20:01:00,
2013-02-15 12:06:00,63.2,46.6,30.25,NNE,23,5.4,11.2,55,0.00,,,0.00,WUHU216HW,2013-02-15 20:06:00,
2013-02-15 12:11:00,63.4,47.4,30.25,NE,45,6.3,11.2,56,0.00,,,0.00,WUHU216HW,2013-02-15 20:11:00,
2013-02-15 12:16:00,63.4,47.4,30.25,NNE,23,6.0,10.5,56,0.00,,,0.00,WUHU216HW,2013-02-15 20:16:00,
2013-02-15 12:21:00,63.4,47.4,30.25,NNE,23,7.6,11.2,56,0.00,,,0.00,WUHU216HW,2013-02-15 20:21:00,
2013-02-15 12:26:00,63.4,46.8,30.25,NNE,23,9.8,12.8,55,0.00,,,0.00,WUHU216HW,2013-02-15 20:26:00,
2013-02-15 12:31:00,63.4,47.4,30.24,North,0,7.6,12.8,56,0.00,,,0.00,WUHU216HW,2013-02-15 20:31:00,
2013-02-15 12:36:00,63.4,47.4,30.24,NE,45,8.9,11.4,56,0.00,,,0.00,WUHU216HW,2013-02-15 20:36:00,
2013-02-15 12:41:00,63.4,47.4,30.24,NE,45,6.9,11.4,56,0.00,,,0.00,WUHU216HW,2013-02-15 20:41:00,
2013-02-15 12:46:00,63.2,47.2,30.24,NE,45,10.1,10.5,56,0.00,,,0.00,WUHU216HW,2013-02-15 20:46:00,
2013-02-15 12:51:00,63.4,47.4,30.24,ENE,68,7.8,10.5,56,0.00,,,0.00,WUHU216HW,2013-02-15 20:51:00,
2013-02-15 12:56:00,63.4,47.4,30.24,NNE,23,9.2,9.2,56,0.00,,,0.00,WUHU216HW,2013-02-15 20:56:00,
2013-02-15 13:02:00,63.4,47.4,30.23,North,0,8.7,9.2,56,0.00,,,0.00,WUHU216HW,2013-02-15 21:02:00,
2013-02-15 13:07:00,63.5,47.0,30.23,NNE,23,7.4,8.7,55,0.00,,,0.00,WUHU216HW,2013-02-15 21:07:00,
2013-02-15 13:12:00,63.7,46.2,30.23,ENE,68,7.6,8.7,53,0.00,,,0.00,WUHU216HW,2013-02-15 21:12:00,
2013-02-15 13:17:00,63.9,46.4,30.23,ENE,68,6.3,8.3,53,0.00,,,0.00,WUHU216HW,2013-02-15 21:17:00,
2013-02-15 13:22:00,64.1,46.0,30.23,NE,45,6.3,6.5,52,0.00,,,0.00,WUHU216HW,2013-02-15 21:22:00,
2013-02-15 13:27:00,64.3,46.2,30.23,NNE,23,10.1,10.1,52,0.00,,,0.00,WUHU216HW,2013-02-15 21:27:00,
2013-02-15 13:32:00,64.3,46.2,30.22,NNE,23,6.9,10.1,52,0.00,,,0.00,WUHU216HW,2013-02-15 21:32:00,
2013-02-15 13:37:00,64.4,46.4,30.22,East,90,8.1,8.5,52,0.00,,,0.00,WUHU216HW,2013-02-15 21:37:00,
2013-02-15 13:42:00,64.4,45.8,30.22,NE,45,5.4,8.1,51,0.00,,,0.00,WUHU216HW,2013-02-15 21:42:00,
2013-02-15 13:47:00,64.4,45.8,30.22,ENE,68,6.9,7.2,51,0.00,,,0.00,WUHU216HW,2013-02-15 21:47:00,
2013-02-15 13:52:00,64.6,46.5,30.22,ENE,68,5.4,8.5,52,0.00,,,0.00,WUHU216HW,2013-02-15 21:52:00,
2013-02-15 13:57:00,64.6,46.5,30.22,ESE,113,3.8,8.5,52,0.00,,,0.00,WUHU216HW,2013-02-15 21:57:00,
2013-02-15 14:02:00,64.8,46.2,30.22,NE,45,6.0,8.3,51,0.00,,,0.00,WUHU216HW,2013-02-15 22:02:00,
2013-02-15 14:07:00,64.8,46.2,30.22,North,0,8.3,8.3,51,0.00,,,0.00,WUHU216HW,2013-02-15 22:07:00,
2013-02-15 14:12:00,65.0,46.9,30.22,NNE,23,5.4,8.3,52,0.00,,,0.00,WUHU216HW,2013-02-15 22:12:00,
2013-02-15 14:17:00,65.2,46.1,30.21,North,0,8.1,8.3,50,0.00,,,0.00,WUHU216HW,2013-02-15 22:17:00,
2013-02-15 14:22:00,65.3,46.3,30.22,ENE,68,4.0,8.1,50,0.00,,,0.00,WUHU216HW,2013-02-15 22:22:00,
2013-02-15 14:27:00,65.5,46.4,30.21,ENE,68,4.7,7.2,50,0.00,,,0.00,WUHU216HW,2013-02-15 22:27:00,
2013-02-15 14:32:00,65.5,45.8,30.21,NNE,23,8.3,8.3,49,0.00,,,0.00,WUHU216HW,2013-02-15 22:32:00,
2013-02-15 14:37:00,65.7,46.6,30.22,East,90,4.7,8.3,50,0.00,,,0.00,WUHU216HW,2013-02-15 22:37:00,
2013-02-15 14:42:00,65.9,46.2,30.22,NE,45,3.6,8.3,49,0.00,,,0.00,WUHU216HW,2013-02-15 22:42:00,
2013-02-15 14:47:00,65.9,45.6,30.21,ENE,68,2.9,7.6,48,0.00,,,0.00,WUHU216HW,2013-02-15 22:47:00,
2013-02-15 14:52:00,65.9,44.5,30.21,NNE,23,6.5,6.5,46,0.00,,,0.00,WUHU216HW,2013-02-15 22:52:00,
2013-02-15 14:57:00,65.9,46.2,30.22,ENE,68,4.0,6.5,49,0.00,,,0.00,WUHU216HW,2013-02-15 22:57:00,
2013-02-15 15:02:00,65.9,45.6,30.22,North,0,4.0,6.9,48,0.00,,,0.00,WUHU216HW,2013-02-15 23:02:00,
2013-02-15 15:07:00,65.9,45.0,30.21,NE,45,6.3,6.9,47,0.00,,,0.00,WUHU216HW,2013-02-15 23:07:00,
2013-02-15 15:12:00,65.9,45.0,30.21,NE,45,7.2,7.2,47,0.00,,,0.00,WUHU216HW,2013-02-15 23:12:00,
2013-02-15 15:17:00,66.1,45.2,30.21,NNE,23,6.5,7.2,47,0.00,,,0.00,WUHU216HW,2013-02-15 23:17:00,
2013-02-15 15:22:00,66.1,44.7,30.21,NNE,23,6.9,6.9,46,0.00,,,0.00,WUHU216HW,2013-02-15 23:22:00,
2013-02-15 15:27:00,66.1,44.0,30.21,NE,45,5.4,6.9,45,0.00,,,0.00,WUHU216HW,2013-02-15 23:27:00,
2013-02-15 15:32:00,66.1,45.2,30.21,NNE,23,4.9,6.5,47,0.00,,,0.00,WUHU216HW,2013-02-15 23:32:00,
2013-02-15 15:37:00,66.1,44.7,30.21,North,0,4.3,4.9,46,0.00,,,0.00,WUHU216HW,2013-02-15 23:37:00,
2013-02-15 15:42:00,66.1,44.0,30.21,NNE,23,6.5,7.6,45,0.00,,,0.00,WUHU216HW,2013-02-15 23:42:00,
2013-02-15 15:47:00,65.9,44.5,30.21,NNE,23,5.1,7.6,46,0.00,,,0.00,WUHU216HW,2013-02-15 23:47:00,
2013-02-15 15:52:00,65.9,44.5,30.21,NNE,23,5.1,6.5,46,0.00,,,0.00,WUHU216HW,2013-02-15 23:52:00,
2013-02-15 15:57:00,65.9,45.0,30.21,NE,45,8.3,8.3,47,0.00,,,0.00,WUHU216HW,2013-02-15 23:57:00,
2013-02-15 16:02:00,65.9,45.0,30.21,NE,45,4.9,8.3,47,0.00,,,0.00,WUHU216HW,2013-02-16 00:02:00,
2013-02-15 16:07:00,65.9,45.0,30.21,NNE,23,5.4,8.3,47,0.00,,,0.00,WUHU216HW,2013-02-16 00:07:00,
2013-02-15 16:12:00,65.9,45.0,30.21,North,0,5.1,6.7,47,0.00,,,0.00,WUHU216HW,2013-02-16 00:12:00,
2013-02-15 16:17:00,65.9,45.6,30.21,ENE,68,3.6,6.7,48,0.00,,,0.00,WUHU216HW,2013-02-16 00:17:00,
2013-02-15 16:22:00,65.7,44.8,30.21,ENE,68,5.6,7.2,47,0.00,,,0.00,WUHU216HW,2013-02-16 00:22:00,
2013-02-15 16:27:00,65.5,45.3,30.21,NNE,23,4.0,7.2,48,0.00,,,0.00,WUHU216HW,2013-02-16 00:27:00,
2013-02-15 16:32:00,65.3,44.5,30.21,NE,45,5.4,7.6,47,0.00,,,0.00,WUHU216HW,2013-02-16 00:32:00,
2013-02-15 16:37:00,65.2,44.9,30.21,NE,45,4.7,7.6,48,0.00,,,0.00,WUHU216HW,2013-02-16 00:37:00,
2013-02-15 16:42:00,65.2,44.9,30.21,NE,45,2.7,6.3,48,0.00,,,0.00,WUHU216HW,2013-02-16 00:42:00,
2013-02-15 16:47:00,65.2,46.1,30.21,ENE,68,3.4,4.7,50,0.00,,,0.00,WUHU216HW,2013-02-16 00:47:00,
2013-02-15 16:52:00,64.6,45.5,30.21,NE,45,4.5,5.1,50,0.00,,,0.00,WUHU216HW,2013-02-16 00:52:00,
2013-02-15 16:57:00,64.4,45.4,30.21,NE,45,3.1,5.1,50,0.00,,,0.00,WUHU216HW,2013-02-16 00:57:00,
2013-02-15 17:02:00,64.3,45.2,30.21,NE,45,4.0,4.7,50,0.00,,,0.00,WUHU216HW,2013-02-16 01:02:00,
2013-02-15 17:07:00,64.1,45.0,30.21,NNE,23,4.5,6.0,50,0.00,,,0.00,WUHU216HW,2013-02-16 01:07:00,
2013-02-15 17:12:00,64.1,45.0,30.20,NNE,23,2.7,6.0,50,0.00,,,0.00,WUHU216HW,2013-02-16 01:12:00,
2013-02-15 17:17:00,63.7,45.2,30.21,NE,45,4.7,4.7,51,0.00,,,0.00,WUHU216HW,2013-02-16 01:17:00,
2013-02-15 17:22:00,63.5,45.0,30.20,NE,45,4.0,4.9,51,0.00,,,0.00,WUHU216HW,2013-02-16 01:22:00,
2013-02-15 17:27:00,63.2,45.2,30.21,NE,45,2.5,4.9,52,0.00,,,0.00,WUHU216HW,2013-02-16 01:27:00,
2013-02-15 17:32:00,62.8,44.9,30.21,NE,45,4.5,4.7,52,0.00,,,0.00,WUHU216HW,2013-02-16 01:32:00,
2013-02-15 17:37:00,62.6,45.2,30.21,NE,45,3.6,4.7,53,0.00,,,0.00,WUHU216HW,2013-02-16 01:37:00,
2013-02-15 17:42:00,62.1,45.2,30.21,NE,45,3.6,4.0,54,0.00,,,0.00,WUHU216HW,2013-02-16 01:42:00,
2013-02-15 17:48:00,61.6,44.7,30.21,NE,45,3.4,4.0,54,0.00,,,0.00,WUHU216HW,2013-02-16 01:48:00,
2013-02-15 17:53:00,61.2,44.9,30.21,NE,45,2.0,3.8,55,0.00,,,0.00,WUHU216HW,2013-02-16 01:53:00,
2013-02-15 17:58:00,60.8,44.6,30.21,ENE,68,2.5,3.6,55,0.00,,,0.00,WUHU216HW,2013-02-16 01:58:00,
2013-02-15 18:03:00,60.5,44.2,30.21,ENE,68,1.8,2.9,55,0.00,,,0.00,WUHU216HW,2013-02-16 02:03:00,
2013-02-15 18:08:00,60.1,43.8,30.21,East,90,2.5,2.7,55,0.00,,,0.00,WUHU216HW,2013-02-16 02:08:00,
2013-02-15 18:13:00,59.4,43.7,30.21,East,90,1.8,2.7,56,0.00,,,0.00,WUHU216HW,2013-02-16 02:13:00,
2013-02-15 18:18:00,58.9,44.1,30.21,ENE,68,2.9,3.1,58,0.00,,,0.00,WUHU216HW,2013-02-16 02:18:00,
2013-02-15 18:23:00,58.7,44.4,30.21,ENE,68,2.2,4.7,59,0.00,,,0.00,WUHU216HW,2013-02-16 02:23:00,
2013-02-15 18:28:00,58.3,43.6,30.22,ESE,113,2.5,4.7,58,0.00,,,0.00,WUHU216HW,2013-02-16 02:28:00,
2013-02-15 18:33:00,57.8,43.1,30.22,East,90,2.0,3.6,58,0.00,,,0.00,WUHU216HW,2013-02-16 02:33:00,
2013-02-15 18:38:00,57.1,42.9,30.21,ESE,113,3.1,3.6,59,0.00,,,0.00,WUHU216HW,2013-02-16 02:38:00,
2013-02-15 18:43:00,56.5,42.4,30.22,ESE,113,2.0,3.4,59,0.00,,,0.00,WUHU216HW,2013-02-16 02:43:00,
2013-02-15 18:48:00,56.0,42.3,30.22,ESE,113,2.5,3.1,60,0.00,,,0.00,WUHU216HW,2013-02-16 02:48:00,
2013-02-15 18:53:00,55.4,41.8,30.22,East,90,1.6,3.1,60,0.00,,,0.00,WUHU216HW,2013-02-16 02:53:00,
2013-02-15 18:58:00,54.9,41.7,30.22,ESE,113,1.1,2.2,61,0.00,,,0.00,WUHU216HW,2013-02-16 02:58:00,
2013-02-15 19:03:00,54.5,41.8,30.22,East,90,1.1,1.6,62,0.00,,,0.00,WUHU216HW,2013-02-16 03:03:00,
2013-02-15 19:08:00,54.2,41.4,30.22,ESE,113,1.1,3.4,62,0.00,,,0.00,WUHU216HW,2013-02-16 03:08:00,
2013-02-15 19:13:00,53.6,41.3,30.22,ESE,113,1.1,3.4,63,0.00,,,0.00,WUHU216HW,2013-02-16 03:13:00,
2013-02-15 19:18:00,53.5,41.1,30.22,East,90,1.1,2.0,63,0.00,,,0.00,WUHU216HW,2013-02-16 03:18:00,
2013-02-15 19:23:00,53.3,41.4,30.22,East,90,1.8,2.0,64,0.00,,,0.00,WUHU216HW,2013-02-16 03:23:00,
2013-02-15 19:28:00,52.9,41.1,30.22,ESE,113,1.8,2.9,64,0.00,,,0.00,WUHU216HW,2013-02-16 03:28:00,
2013-02-15 19:33:00,52.6,41.1,30.22,ESE,113,1.1,2.9,65,0.00,,,0.00,WUHU216HW,2013-02-16 03:33:00,
2013-02-15 19:38:00,52.2,40.8,30.22,ESE,113,1.1,2.5,65,0.00,,,0.00,WUHU216HW,2013-02-16 03:38:00,
2013-02-15 19:43:00,52.0,41.0,30.22,SE,135,2.0,2.2,66,0.00,,,0.00,WUHU216HW,2013-02-16 03:43:00,
2013-02-15 19:48:00,51.7,40.7,30.22,ESE,113,2.5,2.5,66,0.00,,,0.00,WUHU216HW,2013-02-16 03:48:00,
2013-02-15 19:53:00,51.5,40.5,30.22,SE,135,4.0,4.5,66,0.00,,,0.00,WUHU216HW,2013-02-16 03:53:00,
2013-02-15 19:58:00,51.3,40.7,30.22,ESE,113,2.5,4.5,67,0.00,,,0.00,WUHU216HW,2013-02-16 03:58:00,
2013-02-15 20:03:00,51.1,40.5,30.22,SE,135,1.8,3.8,67,0.00,,,0.00,WUHU216HW,2013-02-16 04:03:00,
2013-02-15 20:08:00,50.9,40.3,30.22,ESE,113,1.8,3.8,67,0.00,,,0.00,WUHU216HW,2013-02-16 04:08:00,
2013-02-15 20:13:00,50.8,40.6,30.22,SE,135,0.4,2.0,68,0.00,,,0.00,WUHU216HW,2013-02-16 04:13:00,
2013-02-15 20:18:00,50.4,39.9,30.22,ESE,113,1.8,1.8,67,0.00,,,0.00,WUHU216HW,2013-02-16 04:18:00,
2013-02-15 20:23:00,50.2,40.1,30.22,East,90,1.6,1.8,68,0.00,,,0.00,WUHU216HW,2013-02-16 04:23:00,
2013-02-15 20:28:00,50.0,39.9,30.22,ESE,113,0.9,1.8,68,0.00,,,0.00,WUHU216HW,2013-02-16 04:28:00,
2013-02-15 20:33:00,49.9,39.7,30.22,East,90,0.4,1.8,68,0.00,,,0.00,WUHU216HW,2013-02-16 04:33:00,
2013-02-15 20:38:00,49.9,39.7,30.23,SE,135,1.6,2.0,68,0.00,,,0.00,WUHU216HW,2013-02-16 04:38:00,
2013-02-15 20:43:00,49.5,39.3,30.22,East,90,2.2,2.2,68,0.00,,,0.00,WUHU216HW,2013-02-16 04:43:00,
2013-02-15 20:48:00,49.3,39.2,30.22,ESE,113,1.3,2.2,68,0.00,,,0.00,WUHU216HW,2013-02-16 04:48:00,
2013-02-15 20:53:00,49.1,39.0,30.23,ENE,68,1.3,1.8,68,0.00,,,0.00,WUHU216HW,2013-02-16 04:53:00,
2013-02-15 20:58:00,49.0,38.8,30.23,ESE,113,1.1,1.8,68,0.00,,,0.00,WUHU216HW,2013-02-16 04:58:00,
2013-02-15 21:00:00,49.0,39.3,30.23,East,90,1.1,1.8,69,0.00,,,0.00,WUHU216HW,2013-02-16 05:00:00,
2013-02-15 21:05:00,48.8,38.6,30.23,ESE,113,0.9,1.6,68,0.00,,,0.00,WUHU216HW,2013-02-16 05:05:00,
2013-02-15 21:10:00,48.6,38.9,30.23,ESE,113,0.4,1.1,69,0.00,,,0.00,WUHU216HW,2013-02-16 05:10:00,
2013-02-15 21:15:00,48.6,38.9,30.23,ESE,113,1.1,1.8,69,0.00,,,0.00,WUHU216HW,2013-02-16 05:15:00,
2013-02-15 21:20:00,48.4,38.4,30.23,SE,135,0.2,1.8,68,0.00,,,0.00,WUHU216HW,2013-02-16 05:20:00,
2013-02-15 21:23:00,48.2,38.2,30.23,SE,135,0.4,1.1,68,0.00,,,0.00,WUHU216HW,2013-02-16 05:23:00,
2013-02-15 21:28:00,47.9,37.8,30.23,SE,135,0.0,0.4,68,0.00,,,0.00,WUHU216HW,2013-02-16 05:28:00,
2013-02-15 21:33:00,47.9,37.8,30.23,ESE,113,0.9,1.1,68,0.00,,,0.00,WUHU216HW,2013-02-16 05:33:00,
2013-02-15 21:38:00,47.5,37.4,30.23,SE,135,0.9,1.1,68,0.00,,,0.00,WUHU216HW,2013-02-16 05:38:00,
2013-02-15 21:43:00,47.3,37.3,30.24,SE,135,0.2,0.9,68,0.00,,,0.00,WUHU216HW,2013-02-16 05:43:00,
2013-02-15 21:48:00,47.2,37.5,30.23,SE,135,0.7,0.9,69,0.00,,,0.00,WUHU216HW,2013-02-16 05:48:00,
2013-02-15 21:53:00,47.0,37.4,30.23,SE,135,1.1,1.1,69,0.00,,,0.00,WUHU216HW,2013-02-16 05:53:00,
2013-02-15 21:58:00,46.8,37.2,30.23,ESE,113,0.0,1.1,69,0.00,,,0.00,WUHU216HW,2013-02-16 05:58:00,
2013-02-15 22:03:00,46.6,37.0,30.23,SE,135,3.1,3.1,69,0.00,,,0.00,WUHU216HW,2013-02-16 06:03:00,
2013-02-15 22:08:00,46.4,36.9,30.23,ESE,113,0.4,3.1,69,0.00,,,0.00,WUHU216HW,2013-02-16 06:08:00,
2013-02-15 22:13:00,46.4,36.9,30.24,SE,135,2.2,2.5,69,0.00,,,0.00,WUHU216HW,2013-02-16 06:13:00,
2013-02-15 22:18:00,46.3,36.7,30.25,ENE,68,0.9,2.2,69,0.00,,,0.00,WUHU216HW,2013-02-16 06:18:00,
2013-02-15 22:23:00,46.3,37.8,30.24,ENE,68,1.6,1.8,72,0.00,,,0.00,WUHU216HW,2013-02-16 06:23:00,
2013-02-15 22:28:00,46.4,38.0,30.24,East,90,0.7,1.8,72,0.00,,,0.00,WUHU216HW,2013-02-16 06:28:00,
2013-02-15 22:33:00,46.4,38.0,30.24,East,90,0.4,1.3,72,0.00,,,0.00,WUHU216HW,2013-02-16 06:33:00,
2013-02-15 22:38:00,46.3,37.8,30.24,East,90,1.1,2.0,72,0.00,,,0.00,WUHU216HW,2013-02-16 06:38:00,
2013-02-15 22:43:00,46.1,37.6,30.24,ESE,113,1.8,2.0,72,0.00,,,0.00,WUHU216HW,2013-02-16 06:43:00,
2013-02-15 22:48:00,45.9,37.1,30.24,East,90,1.6,2.0,71,0.00,,,0.00,WUHU216HW,2013-02-16 06:48:00,
2013-02-15 22:53:00,45.7,36.9,30.24,East,90,1.1,1.8,71,0.00,,,0.00,WUHU216HW,2013-02-16 06:53:00,
2013-02-15 22:58:00,45.7,36.9,30.24,ESE,113,1.3,1.8,71,0.00,,,0.00,WUHU216HW,2013-02-16 06:58:00,
2013-02-15 23:03:00,45.5,36.7,30.24,ENE,68,0.9,2.0,71,0.00,,,0.00,WUHU216HW,2013-02-16 07:03:00,
2013-02-15 23:08:00,45.4,36.6,30.24,SE,135,2.9,2.9,71,0.00,,,0.00,WUHU216HW,2013-02-16 07:08:00,
2013-02-15 23:13:00,45.2,36.4,30.24,ESE,113,1.1,2.9,71,0.00,,,0.00,WUHU216HW,2013-02-16 07:13:00,
2013-02-15 23:18:00,45.0,36.2,30.24,SE,135,1.1,2.7,71,0.00,,,0.00,WUHU216HW,2013-02-16 07:18:00,
2013-02-15 23:23:00,44.8,36.0,30.24,SE,135,0.7,1.8,71,0.00,,,0.00,WUHU216HW,2013-02-16 07:23:00,
2013-02-15 23:28:00,44.6,35.8,30.24,SE,135,1.1,1.3,71,0.00,,,0.00,WUHU216HW,2013-02-16 07:28:00,
2013-02-15 23:33:00,44.6,35.8,30.24,ESE,113,1.8,1.8,71,0.00,,,0.00,WUHU216HW,2013-02-16 07:33:00,
2013-02-15 23:38:00,44.5,35.7,30.23,ESE,113,1.8,2.0,71,0.00,,,0.00,WUHU216HW,2013-02-16 07:38:00,
2013-02-15 23:43:00,44.3,35.5,30.22,SE,135,0.4,2.5,71,0.00,,,0.00,WUHU216HW,2013-02-16 07:43:00,
2013-02-15 23:48:00,44.3,35.5,30.22,SE,135,2.0,2.5,71,0.00,,,0.00,WUHU216HW,2013-02-16 07:48:00,
2013-02-15 23:53:00,44.1,35.3,30.23,ESE,113,1.8,2.9,71,0.00,,,0.00,WUHU216HW,2013-02-16 07:53:00,
2013-02-15 23:58:00,43.9,35.2,30.23,SSE,158,1.3,2.9,71,0.00,,,0.00,WUHU216HW,2013-02-16 07:58:00,